SICH 2

Satellite information

Favourite Embed

Satellite Type and Status

PAYLOADIN ORBIT

Key statistics

Satellite SICH 2 at a glance.

Uptime

5181

Days in orbit

Revolutions

≈ 14.7

Per day

Orbit

SSO

Sun Synchronous Orbit

Inclination

97.8

Latest

Satellite identification and parameters

Extended collection of information and parameters for SICH 2.

Object identification

Identified? True

Debris? False

Object name: SICH 2

International designator: 2011-044G

Object number (NORAD): 37794

Object ID (CCSDS): 37794

Country: UKRAINE (UKR)

Current information (Y/N): Y

RCS size: MEDIUM

Orbital parameters

Period: 98.281 minutes

Inclination: 97.8157 deg

SMA: 7054.606 km

Apoapsis: 684.57 km

Periapsis: 668.372 km

RAAN: 282.7402 deg

Eccentricy: 0.00114811

Argument of periapsis: 197.5861 deg

Mean anomaly: 192.5374 deg

Mean motion: 14.6518889 rev/day

Mean motion (dot): 0.00001247 rev/day2

B* drag term: 0.00023983445 1/REarth

Two-line elements (TLE)

Creation date: Oct. 23, 2025, 2:46 a.m.

Reference frame: TEME

Reference center: EARTH

Epoch: Oct. 22, 2025, 10:07 p.m. UTC

TLE line 0: 0 SICH 2

TLE line 1: 1 37794U 11044G 25295.92198490 .00001247 00000-0 23983-3 0 9997

TLE line 2: 2 37794 97.8157 282.7402 0011481 197.5861 192.5374 14.65188890756713

Live tracking on map

Real-time ground track for satellite SICH 2.

In-orbit conjunctions

There are no conjunctions computed for SICH 2, at the moment. Check back to stay up to date, as we update our databases every day.

Go to all conjunctions

Associated space launch

SICH 2 was lifted into orbit during the mission ‘Dnepr 1 | Sich-2’, on board a Dnepr space rocket.

The launch took place on Aug. 17, 2011, 7:12 a.m. from 370/13.

For more information about the launch, click the button.

Launch to space Dnepr 1 | Sich-2
Dnepr 1 | Sich-2

Agency: N/A

Status: Launch Successful

Launch date: Aug. 17, 2011, 7:12 a.m. UTC

Rocket: Dnepr

Launch pad: 370/13

Location: Dombarovskiy, Russian Federation

...

Latest news about this satellite

There are no fresh news available about this satellite. Check back as we update our databases every day.


Newsletter sign-up

Weekly statistics, charts and insights to help you stay on top of the space industry.